Location: Sungai Liu
(2.3667°N, 113.8667°E)
Time: 13:47:14
(UTC+00:00)

MINOTAUR 4 R/B - Pass Details

Date: 20 May 2022
Orbit: 464 x 473 km, 98.0° (Epoch: 04 July)

Event Time Altitude Azimuth Distance (km) Brightness Sun altitude
Rises 21:18:16 0° 179° (S) 2,492 7.5 -13.9°
Reaches altitude 10° 21:20:21 10° 185° (S) 1,616 6.4 -13.4°
Maximum altitude 21:23:41 44° 258° (WSW) 652 4.2 -12.6°
Drops below altitude 10° 21:27:00 10° 332° (NNW) 1,615 6.6 -11.8°
Sets 21:29:06 0° 339° (NNW) 2,490 7.7 -11.4°
